When you browse on this site, cookies collect data to enhance your experience and personalize the content and advertising you see.
Visit our Privacy Policy to learn more. By continuing to use the site, you agree to this use of cookies and data.
  • In Deutschland
  • Länderverzeichnis
  • Für 7 Tage
  • Wassertemperatur
  • Satellitenkarten
  • Wetterkarte
  • Widgets
  • user-avatar
    Anmelden

    Stündliche Wetter La Massana

    Heute, 26 März, Dienstag

    Zeit Temperatur Niederschläge Wind Luftdruck Luftfeuchtigkeit
    00:00 -4°C° 0 mm 4 m/S 610 mmHg 85%
    01:00 -4°C° 0 mm 4 m/S 610 mmHg 85%
    02:00 -5°C° 0 mm 3 m/S 610 mmHg 84%
    03:00 -5°C° 0 mm 3 m/S 610 mmHg 84%
    04:00 -6°C° 0 mm 3 m/S 610 mmHg 81%
    05:00 -6°C° 0 mm 3 m/S 609 mmHg 78%
    06:00 -7°C° 0 mm 3 m/S 609 mmHg 74%
    07:00 -5°C° 0 mm 3 m/S 610 mmHg 58%
    08:00 -3°C° 0 mm 4 m/S 611 mmHg 41%
    09:00 -1°C° 0 mm 4 m/S 612 mmHg 24%
    10:00 +1°C° 0 mm 4 m/S 613 mmHg 22%
    11:00 +3°C° 0 mm 4 m/S 613 mmHg 20%
    12:00 +4°C° 0 mm 4 m/S 613 mmHg 18%
    13:00 +4°C° 0 mm 4 m/S 613 mmHg 21%
    14:00 +4°C° 0 mm 4 m/S 613 mmHg 23%
    15:00 +3°C° 0 mm 4 m/S 612 mmHg 26%
    16:00 +2°C° 0 mm 3 m/S 612 mmHg 35%
    17:00 0°C° 0 mm 3 m/S 611 mmHg 44%
    18:00 -2°C° 0 mm 2 m/S 611 mmHg 53%
    19:00 -3°C° 0 mm 2 m/S 611 mmHg 57%
    20:00 -3°C° 0 mm 2 m/S 611 mmHg 61%
    21:00 -4°C° 0 mm 2 m/S 611 mmHg 66%
    22:00 -4°C° 0 mm 2 m/S 611 mmHg 64%
    23:00 -4°C° 0 mm 2 m/S 611 mmHg 62%

    Morgen, 27 März, Mittwoch

    Zeit Temperatur Niederschläge Wind Luftdruck Luftfeuchtigkeit
    00:00 -4°C° 0 mm 2 m/S 611 mmHg 61%
    01:00 -4°C° 0 mm 2 m/S 611 mmHg 60%
    02:00 -5°C° 0 mm 2 m/S 611 mmHg 60%
    03:00 -5°C° 0 mm 2 m/S 611 mmHg 59%
    04:00 -5°C° 0 mm 2 m/S 611 mmHg 54%
    05:00 -5°C° 0 mm 2 m/S 611 mmHg 48%
    06:00 -5°C° 0 mm 2 m/S 611 mmHg 43%
    07:00 -2°C° 0 mm 2 m/S 613 mmHg 35%
    08:00 +2°C° 0 mm 2 m/S 614 mmHg 28%
    09:00 +5°C° 0 mm 2 m/S 615 mmHg 20%
    10:00 +6°C° 0 mm 2 m/S 615 mmHg 21%
    11:00 +7°C° 0 mm 2 m/S 616 mmHg 22%
    12:00 +8°C° 0 mm 2 m/S 616 mmHg 23%
    13:00 +8°C° 0 mm 2 m/S 616 mmHg 26%
    14:00 +7°C° 0 mm 2 m/S 615 mmHg 29%
    15:00 +7°C° 0 mm 3 m/S 615 mmHg 32%
    16:00 +5°C° 0 mm 2 m/S 614 mmHg 42%
    17:00 +3°C° 0 mm 2 m/S 613 mmHg 51%
    18:00 +1°C° 0 mm 2 m/S 613 mmHg 61%
    19:00 -1°C° 0 mm 2 m/S 613 mmHg 66%
    20:00 -2°C° 0 mm 2 m/S 613 mmHg 72%
    21:00 -1°C° 0 mm 1 m/S 613 mmHg 77%
    22:00 -1°C° 0 mm 1 m/S 613 mmHg 76%
    23:00 -1°C° 0 mm 1 m/S 613 mmHg 75%

    übermorgen, 28 März, Donnerstag

    Zeit Temperatur Niederschläge Wind Luftdruck Luftfeuchtigkeit
    00:00 -1°C° 0 mm 1 m/S 613 mmHg 74%
    01:00 -1°C° 0 mm 1 m/S 613 mmHg 77%
    02:00 -1°C° 0 mm 1 m/S 613 mmHg 80%
    03:00 -1°C° 0 mm 1 m/S 613 mmHg 84%
    04:00 -1°C° 0 mm 1 m/S 613 mmHg 83%
    05:00 -1°C° 0 mm 1 m/S 613 mmHg 83%
    06:00 -1°C° 0 mm 1 m/S 613 mmHg 83%
    07:00 +1°C° 0 mm 1 m/S 614 mmHg 71%
    08:00 +3°C° 0 mm 2 m/S 616 mmHg 58%
    09:00 +5°C° 0 mm 2 m/S 617 mmHg 46%
    10:00 +6°C° 0 mm 2 m/S 617 mmHg 43%
    11:00 +8°C° 0 mm 2 m/S 618 mmHg 40%
    12:00 +9°C° 0 mm 2 m/S 618 mmHg 37%
    13:00 +9°C° 0 mm 2 m/S 618 mmHg 40%
    14:00 +8°C° 0 mm 2 m/S 617 mmHg 43%
    15:00 +8°C° 0 mm 2 m/S 617 mmHg 46%
    16:00 +7°C° 0 mm 1 m/S 616 mmHg 56%
    17:00 +5°C° 0 mm 1 m/S 615 mmHg 66%
    18:00 +4°C° 0 mm 1 m/S 614 mmHg 76%
    19:00 +3°C° 0 mm 1 m/S 614 mmHg 80%
    20:00 +1°C° 0 mm 0 m/S 614 mmHg 84%
    21:00 0°C° 0 mm 0 m/S 614 mmHg 87%
    22:00 0°C° 0 mm 0 m/S 614 mmHg 89%
    23:00 -1°C° 0 mm 0 m/S 614 mmHg 90%

    29 März, Freitag

    Zeit Temperatur Niederschläge Wind Luftdruck Luftfeuchtigkeit
    00:00 0°C° 0 mm 1 m/S 614 mmHg 91%
    01:00 0°C° 0 mm 1 m/S 614 mmHg 91%
    02:00 0°C° 0 mm 1 m/S 613 mmHg 91%
    03:00 0°C° 0 mm 1 m/S 613 mmHg 91%
    04:00 0°C° 0 mm 1 m/S 613 mmHg 91%
    05:00 0°C° 0 mm 1 m/S 614 mmHg 91%
    06:00 0°C° 0 mm 1 m/S 614 mmHg 90%
    07:00 +2°C° 0 mm 1 m/S 615 mmHg 78%
    08:00 +4°C° 0 mm 1 m/S 616 mmHg 66%
    09:00 +5°C° 0 mm 2 m/S 617 mmHg 53%
    10:00 +6°C° 0 mm 2 m/S 617 mmHg 49%
    11:00 +7°C° 0 mm 2 m/S 617 mmHg 45%
    12:00 +7°C° 0 mm 2 m/S 617 mmHg 41%
    13:00 +7°C° 0.1 mm 2 m/S 617 mmHg 41%
    14:00 +7°C° 0.1 mm 2 m/S 616 mmHg 42%
    15:00 +7°C° 0.1 mm 2 m/S 616 mmHg 42%
    16:00 +7°C° 0.1 mm 1 m/S 616 mmHg 47%
    17:00 +6°C° 0.1 mm 1 m/S 615 mmHg 52%
    18:00 +4°C° 0.1 mm 1 m/S 615 mmHg 57%
    19:00 +3°C° 0 mm 1 m/S 614 mmHg 62%
    20:00 +2°C° 0 mm 1 m/S 614 mmHg 67%
    21:00 +1°C° 0 mm 1 m/S 614 mmHg 72%
    22:00 0°C° 0 mm 1 m/S 614 mmHg 71%
    23:00 -2°C° 0 mm 2 m/S 613 mmHg 70%

    30 März, Samstag

    Zeit Temperatur Niederschläge Wind Luftdruck Luftfeuchtigkeit
    00:00 -2°C° 0 mm 2 m/S 613 mmHg 69%
    01:00 -3°C° 0 mm 2 m/S 613 mmHg 64%
    02:00 -3°C° 0 mm 2 m/S 613 mmHg 58%
    03:00 -3°C° 0 mm 2 m/S 612 mmHg 52%
    04:00 -4°C° 0 mm 2 m/S 612 mmHg 48%
    05:00 -4°C° 0 mm 2 m/S 612 mmHg 45%
    06:00 -4°C° 0 mm 2 m/S 612 mmHg 41%
    07:00 -1°C° 0 mm 2 m/S 613 mmHg 36%
    08:00 +2°C° 0 mm 2 m/S 614 mmHg 31%
    09:00 +5°C° 0 mm 2 m/S 615 mmHg 26%
    10:00 +6°C° 0 mm 2 m/S 615 mmHg 25%
    11:00 +7°C° 0 mm 2 m/S 615 mmHg 24%
    12:00 +8°C° 0 mm 2 m/S 615 mmHg 23%
    13:00 +8°C° 0 mm 2 m/S 615 mmHg 25%
    14:00 +8°C° 0 mm 2 m/S 614 mmHg 27%
    15:00 +8°C° 0 mm 2 m/S 614 mmHg 29%
    16:00 +6°C° 0 mm 2 m/S 613 mmHg 38%
    17:00 +5°C° 0 mm 1 m/S 612 mmHg 48%
    18:00 +3°C° 0 mm 1 m/S 611 mmHg 57%
    19:00 +2°C° 0 mm 1 m/S 611 mmHg 64%
    20:00 +1°C° 0 mm 1 m/S 611 mmHg 72%
    21:00 0°C° 0 mm 1 m/S 611 mmHg 79%
    22:00 0°C° 0 mm 1 m/S 610 mmHg 81%
    23:00 -1°C° 0 mm 1 m/S 610 mmHg 82%

    31 März, Sonntag

    Zeit Temperatur Niederschläge Wind Luftdruck Luftfeuchtigkeit
    00:00 -1°C° 0 mm 1 m/S 610 mmHg 83%
    01:00 -1°C° 0 mm 1 m/S 609 mmHg 80%
    02:00 0°C° 0 mm 1 m/S 609 mmHg 76%
    03:00 0°C° 0 mm 1 m/S 609 mmHg 73%
    04:00 0°C° 0 mm 1 m/S 609 mmHg 71%
    05:00 -1°C° 0 mm 1 m/S 609 mmHg 70%
    06:00 -2°C° 0 mm 0 m/S 609 mmHg 69%
    07:00 +1°C° 0 mm 0 m/S 610 mmHg 60%
    08:00 +4°C° 0 mm 0 m/S 611 mmHg 51%
    09:00 +6°C° 0 mm 0 m/S 612 mmHg 42%
    10:00 +8°C° 0 mm 1 m/S 612 mmHg 40%
    11:00 +9°C° 0 mm 1 m/S 612 mmHg 38%
    12:00 +10°C° 0 mm 1 m/S 612 mmHg 36%
    13:00 +10°C° 0 mm 1 m/S 611 mmHg 39%
    14:00 +9°C° 0 mm 1 m/S 611 mmHg 43%
    15:00 +8°C° 0 mm 1 m/S 610 mmHg 46%
    16:00 +7°C° 0.1 mm 1 m/S 609 mmHg 53%
    17:00 +6°C° 0.1 mm 1 m/S 609 mmHg 61%
    18:00 +3°C° 0.1 mm 0 m/S 608 mmHg 69%
    19:00 +2°C° 0 mm 0 m/S 608 mmHg 74%
    20:00 +1°C° 0 mm 0 m/S 608 mmHg 80%
    21:00 0°C° 0 mm 0 m/S 608 mmHg 85%
    22:00 0°C° 0 mm 0 m/S 607 mmHg 85%
    23:00 0°C° 0 mm 1 m/S 607 mmHg 84%
    Mehr zeigen